Location: Crescent
(42.8242°N, 73.7329°W)
Time: 04:34:10
(UTC+00:00)

A-11 Canister half - Pass Details

Date: 16 February 2026
Orbit: 1524 x 1683 km, 47.3° (Epoch: 14 March)

Event Time Altitude Azimuth Distance (km) Brightness Sun altitude
Rises 23:42:57 0° 265° (W) 4,696 13.5 -14.4°
Reaches altitude 10° 23:46:02 10° 267° (W) 3,703 12.4 -14.9°
Maximum altitude 23:55:20 70° 351° (N) 1,608 9.1 -16.6°
Enters shadow 00:01:53 22° 71° (ENE) 2,856 9.8 -17.8°
